Location: Launay
(47.2429°N, 1.5727°E)
Time: 18:36:30
(UTC+00:00)

USA 59 Rocket - Pass Details

Date: 19 May 2025
Orbit: 373 x 1695 km, 63.3° (Epoch: 22 June)

Event Time Altitude Azimuth Distance (km) Brightness Sun altitude
Exits shadow 22:10:36 16° 68° (ENE) 1,130 1.4 -19.1°
Drops below altitude 10° 22:11:25 10° 59° (ENE) 1,425 2.0 -19.2°
Sets 22:13:25 0° 49° (NE) 2,248 3.2 -19.3°
